TimePDT,TemperatureF,Dew PointF,Humidity,Sea Level PressureIn,VisibilityMPH,Wind Direction,Wind SpeedMPH,Gust SpeedMPH,PrecipitationIn,Events,Conditions,WindDirDegrees,DateUTC
12:56 AM,86.0,18.0,8,29.74,10.0,North,-9999.0,-,N/A,,Clear,0,2013-06-15 07:56:00
1:56 AM,80.1,30.9,17,29.74,10.0,North,-9999.0,-,N/A,,Clear,0,2013-06-15 08:56:00
2:56 AM,77.0,50.0,39,29.74,10.0,North,-9999.0,-,N/A,,Clear,0,2013-06-15 09:56:00
3:56 AM,75.0,53.1,46,29.75,10.0,North,-9999.0,-,N/A,,Clear,0,2013-06-15 10:56:00
4:56 AM,73.9,57.9,57,29.76,10.0,North,-9999.0,-,N/A,,Clear,0,2013-06-15 11:56:00
5:56 AM,70.0,55.0,59,29.78,10.0,North,-9999.0,-,N/A,,Clear,0,2013-06-15 12:56:00
6:56 AM,75.0,61.0,62,29.80,10.0,Variable,3.5,-,N/A,,Clear,0,2013-06-15 13:56:00
7:56 AM,80.1,60.1,50,29.81,10.0,East,4.6,-,N/A,,Clear,80,2013-06-15 14:56:00
8:56 AM,84.9,57.0,38,29.82,10.0,East,6.9,-,N/A,,Clear,100,2013-06-15 15:56:00
9:56 AM,90.0,45.0,21,29.82,10.0,East,5.8,-,N/A,,Clear,80,2013-06-15 16:56:00
10:56 AM,93.0,46.0,20,29.83,10.0,Variable,5.8,-,N/A,,Clear,0,2013-06-15 17:56:00
11:56 AM,97.0,44.1,16,29.82,10.0,ESE,8.1,-,N/A,,Clear,120,2013-06-15 18:56:00
12:56 PM,99.0,30.9,9,29.81,10.0,ENE,4.6,-,N/A,,Clear,60,2013-06-15 19:56:00
1:56 PM,102.0,37.0,11,29.78,10.0,ESE,6.9,-,N/A,,Clear,110,2013-06-15 20:56:00
2:56 PM,102.9,34.0,9,29.76,10.0,ESE,9.2,-,N/A,,Clear,120,2013-06-15 21:56:00
3:56 PM,104.0,28.0,7,29.74,10.0,SSE,4.6,-,N/A,,Clear,160,2013-06-15 22:56:00
4:56 PM,105.1,19.9,5,29.74,10.0,WSW,20.7,-,N/A,,Clear,250,2013-06-15 23:56:00
5:56 PM,102.0,19.9,5,29.73,10.0,WSW,23.0,31.1,N/A,,Clear,250,2013-06-16 00:56:00
6:56 PM,98.1,10.9,4,29.75,10.0,West,21.9,28.8,N/A,,Clear,260,2013-06-16 01:56:00
7:56 PM,93.0,15.1,6,29.76,10.0,WSW,20.7,26.5,N/A,,Clear,250,2013-06-16 02:56:00
8:56 PM,89.1,21.9,9,29.78,10.0,West,20.7,-,N/A,,Clear,270,2013-06-16 03:56:00
9:56 PM,87.1,21.0,9,29.80,10.0,West,25.3,-,N/A,,Clear,260,2013-06-16 04:56:00
10:56 PM,84.0,15.1,8,29.80,10.0,West,15.0,-,N/A,,Clear,260,2013-06-16 05:56:00
11:56 PM,78.1,21.0,12,29.82,10.0,North,3.5,-,N/A,,Clear,10,2013-06-16 06:56:00